Epoch 2021 Nov. 2.0 TT = JDT 2459520.5
T 2021 Oct. 18.30271 TT Rudenko
q 2.4557239 (2000.0) P Q
n 0.14415761 Peri. 167.44443 -0.09111945 -0.97686497
a 3.6022817 Node 287.53555 +0.89522339 +0.00474799
e 0.3182865 Incl. 11.70674 +0.43620216 -0.21380433
P 6.84
From 2699 observations 1993 June 23-2021 Aug. 2, mean residual 0".8.